Regional Weather Roundup
Issued by NWS

Home | Current Version | Previous Version | Text Only | Print | Product List | Glossary Off
Versions: 1 2 3 4 5 6 7 8 9 10 11 12 13 14 15 16 17 18 19 20 21 22 23 24 25 26 27 28 29 30 31 32 33 34 35 36 37 38 39 40 41 42 43 44 45 46 47 48 49 50

000
ASUS43 KBIS 300402
RWRND

NORTH DAKOTA REGIONAL WEATHER ROUNDUP
NATIONAL WEATHER SERVICE BISMARCK ND
1100 PM CDT FRI MAY 29 2015

NOTE: "FAIR" INDICATES FEW OR NO CLOUDS BELOW 12,000 FEET WITH NO
SIGNIFICANT WEATHER AND/OR OBSTRUCTIONS TO VISIBILITY.


NDZ001>003-009>011-017-300500-
NORTHWEST NORTH DAKOTA

CITY           SKY/WX    TMP DP  RH WIND       PRES   REMARKS
WILLISTON      CLEAR     49  32  52 NE6       30.29R
MINOT          CLEAR     41  31  67 N5        30.30R
MINOT AFB      CLEAR     47  38  70 N6        30.30R
$$

NDZ018>021-031>035-040>046-300500-
SOUTHWEST NORTH DAKOTA

CITY           SKY/WX    TMP DP  RH WIND       PRES   REMARKS
BISMARCK       CLEAR     50  33  52 N7        30.30R
DICKINSON      CLEAR     40  32  73 E7        30.28R
GARRISON         N/A     43  35  73 NE3       30.30R
HETTINGER ARPT CLEAR     39  35  86 E6        30.30R
$$

NDZ004>008-012>016-024-026-027-054-300500-
NORTHEAST NORTH DAKOTA

CITY           SKY/WX    TMP DP  RH WIND       PRES   REMARKS
GRAND FORKS    CLEAR     43  31  62 N14       30.30R
GRND FRKS AFB  CLEAR     42  29  58 N17       30.31R
DEVILS LAKE    CLEAR     43  27  52 NE17G24   30.32R
$$

NDZ022-023-025-028>030-036>039-047>053-300500-
SOUTHEAST NORTH DAKOTA

CITY           SKY/WX    TMP DP  RH WIND       PRES   REMARKS
FARGO          PTCLDY    47  34  60 N18       30.25R
JAMESTOWN      CLEAR     46  33  60 NE15      30.28R
$$




USA.gov is the U.S. government's official web portal to all federal, state and local government web resources and services.